When you browse on this site, cookies collect data to enhance your experience and personalize the content and advertising you see.
Visit our Privacy Policy to learn more. By continuing to use the site, you agree to this use of cookies and data.
  • In Österreich
  • Länderverzeichnis
  • Für 7 Tage
  • Wassertemperatur
  • Satellitenkarten
  • Wetterkarte
  • News
  • Widgets
  • user-avatar
    Anmelden

    Stündliche Wetter Rzeszow

    Heute, 19 Mai, Sonntag

    Zeit Temperatur Niederschläge Wind Luftdruck Luftfeuchtigkeit
    00:00 +15°C° 0 mm 2 m/S 738 mmHg 95%
    01:00 +15°C° 0 mm 2 m/S 738 mmHg 95%
    02:00 +14°C° 0 mm 2 m/S 738 mmHg 96%
    03:00 +14°C° 0 mm 2 m/S 738 mmHg 96%
    04:00 +14°C° 0 mm 2 m/S 738 mmHg 96%
    05:00 +15°C° 0 mm 2 m/S 738 mmHg 93%
    06:00 +17°C° 0 mm 2 m/S 738 mmHg 90%
    07:00 +18°C° 0 mm 2 m/S 738 mmHg 85%
    08:00 +19°C° 0.1 mm 2 m/S 738 mmHg 80%
    09:00 +21°C° 0.1 mm 2 m/S 738 mmHg 74%
    10:00 +23°C° 0.1 mm 2 m/S 738 mmHg 68%
    11:00 +24°C° 0.3 mm 2 m/S 738 mmHg 67%
    12:00 +24°C° 0.3 mm 3 m/S 737 mmHg 66%
    13:00 +23°C° 0 mm 4 m/S 738 mmHg 66%
    14:00 +23°C° 0.5 mm 4 m/S 738 mmHg 68%
    15:00 +23°C° 0.5 mm 4 m/S 738 mmHg 70%
    16:00 +23°C° 0.5 mm 4 m/S 737 mmHg 73%
    17:00 +21°C° 0.2 mm 3 m/S 737 mmHg 77%
    18:00 +20°C° 0.2 mm 3 m/S 737 mmHg 82%
    19:00 +18°C° 0.2 mm 3 m/S 737 mmHg 87%
    20:00 +18°C° 0 mm 3 m/S 737 mmHg 89%
    21:00 +17°C° 0 mm 2 m/S 737 mmHg 90%
    22:00 +16°C° 0 mm 2 m/S 737 mmHg 91%
    23:00 +16°C° 0 mm 2 m/S 737 mmHg 92%

    Morgen, 20 Mai, Montag

    Zeit Temperatur Niederschläge Wind Luftdruck Luftfeuchtigkeit
    00:00 +15°C° 0 mm 2 m/S 736 mmHg 93%
    01:00 +15°C° 0 mm 2 m/S 736 mmHg 93%
    02:00 +14°C° 0 mm 3 m/S 736 mmHg 94%
    03:00 +14°C° 0 mm 3 m/S 736 mmHg 95%
    04:00 +13°C° 0 mm 3 m/S 735 mmHg 95%
    05:00 +16°C° 0 mm 3 m/S 735 mmHg 92%
    06:00 +17°C° 0 mm 3 m/S 735 mmHg 88%
    07:00 +19°C° 0 mm 3 m/S 735 mmHg 84%
    08:00 +21°C° 0.1 mm 4 m/S 735 mmHg 78%
    09:00 +22°C° 0.1 mm 4 m/S 736 mmHg 73%
    10:00 +25°C° 0.1 mm 4 m/S 736 mmHg 67%
    11:00 +25°C° 0.6 mm 4 m/S 736 mmHg 66%
    12:00 +25°C° 0.6 mm 5 m/S 736 mmHg 65%
    13:00 +25°C° 0.6 mm 5 m/S 736 mmHg 65%
    14:00 +23°C° 0.3 mm 4 m/S 736 mmHg 71%
    15:00 +22°C° 0.3 mm 3 m/S 736 mmHg 77%
    16:00 +21°C° 0.3 mm 3 m/S 736 mmHg 83%
    17:00 +20°C° 0 mm 3 m/S 736 mmHg 85%
    18:00 +19°C° 0 mm 3 m/S 736 mmHg 86%
    19:00 +18°C° 0 mm 3 m/S 736 mmHg 87%
    20:00 +18°C° 0 mm 3 m/S 736 mmHg 87%
    21:00 +17°C° 0 mm 3 m/S 736 mmHg 88%
    22:00 +16°C° 0 mm 3 m/S 736 mmHg 89%
    23:00 +14°C° 0 mm 3 m/S 736 mmHg 89%

    übermorgen, 21 Mai, Dienstag

    Zeit Temperatur Niederschläge Wind Luftdruck Luftfeuchtigkeit
    00:00 +14°C° 0 mm 3 m/S 736 mmHg 89%
    01:00 +15°C° 0 mm 2 m/S 736 mmHg 90%
    02:00 +15°C° 0.1 mm 2 m/S 736 mmHg 90%
    03:00 +15°C° 0.1 mm 2 m/S 736 mmHg 90%
    04:00 +15°C° 0.1 mm 2 m/S 736 mmHg 90%
    05:00 +15°C° 0 mm 2 m/S 736 mmHg 89%
    06:00 +14°C° 0 mm 3 m/S 735 mmHg 88%
    07:00 +16°C° 0 mm 3 m/S 735 mmHg 88%
    08:00 +17°C° 0 mm 3 m/S 735 mmHg 85%
    09:00 +17°C° 0 mm 3 m/S 735 mmHg 82%
    10:00 +18°C° 0 mm 4 m/S 735 mmHg 80%
    11:00 +17°C° 3 mm 4 m/S 735 mmHg 84%
    12:00 +17°C° 3 mm 4 m/S 735 mmHg 87%
    13:00 +15°C° 3 mm 4 m/S 734 mmHg 91%
    14:00 +15°C° 2.5 mm 5 m/S 734 mmHg 91%
    15:00 +14°C° 2.5 mm 6 m/S 734 mmHg 91%
    16:00 +14°C° 2.5 mm 6 m/S 734 mmHg 91%
    17:00 +14°C° 0.6 mm 6 m/S 734 mmHg 91%
    18:00 +14°C° 0.6 mm 5 m/S 735 mmHg 92%
    19:00 +14°C° 0.6 mm 5 m/S 735 mmHg 92%
    20:00 +14°C° 0.6 mm 4 m/S 735 mmHg 93%
    21:00 +13°C° 0.6 mm 4 m/S 735 mmHg 93%
    22:00 +13°C° 0.6 mm 4 m/S 736 mmHg 94%
    23:00 +13°C° 0 mm 4 m/S 736 mmHg 94%

    22 Mai, Mittwoch

    Zeit Temperatur Niederschläge Wind Luftdruck Luftfeuchtigkeit
    00:00 +13°C° 0 mm 4 m/S 736 mmHg 94%
    01:00 +12°C° 0 mm 4 m/S 736 mmHg 94%
    02:00 +12°C° 0 mm 5 m/S 736 mmHg 94%
    03:00 +12°C° 0 mm 5 m/S 736 mmHg 93%
    04:00 +10°C° 0 mm 6 m/S 736 mmHg 93%
    05:00 +11°C° 0 mm 6 m/S 736 mmHg 91%
    06:00 +13°C° 0 mm 6 m/S 736 mmHg 89%
    07:00 +12°C° 0 mm 7 m/S 736 mmHg 87%
    08:00 +14°C° 0.1 mm 7 m/S 737 mmHg 86%
    09:00 +14°C° 0.1 mm 7 m/S 737 mmHg 85%
    10:00 +15°C° 0.1 mm 6 m/S 737 mmHg 84%
    11:00 +14°C° 0.3 mm 6 m/S 737 mmHg 85%
    12:00 +14°C° 0.3 mm 6 m/S 737 mmHg 87%
    13:00 +14°C° 0.3 mm 6 m/S 737 mmHg 89%
    14:00 +15°C° 0.1 mm 6 m/S 737 mmHg 87%
    15:00 +16°C° 0.1 mm 5 m/S 737 mmHg 86%
    16:00 +17°C° 0.1 mm 5 m/S 737 mmHg 85%
    17:00 +17°C° 0.7 mm 4 m/S 736 mmHg 87%
    18:00 +17°C° 0.7 mm 4 m/S 736 mmHg 89%
    19:00 +15°C° 0.7 mm 4 m/S 736 mmHg 92%
    20:00 +14°C° 0.2 mm 4 m/S 737 mmHg 93%
    21:00 +13°C° 0.2 mm 4 m/S 737 mmHg 94%
    22:00 +13°C° 0.2 mm 3 m/S 737 mmHg 95%
    23:00 +13°C° 0.5 mm 4 m/S 737 mmHg 95%

    23 Mai, Donnerstag

    Zeit Temperatur Niederschläge Wind Luftdruck Luftfeuchtigkeit
    00:00 +13°C° 0.5 mm 4 m/S 737 mmHg 95%
    01:00 +14°C° 0.5 mm 4 m/S 737 mmHg 95%
    02:00 +14°C° 0.7 mm 4 m/S 737 mmHg 95%
    03:00 +14°C° 0.7 mm 4 m/S 737 mmHg 95%
    04:00 +14°C° 0.7 mm 5 m/S 737 mmHg 96%
    05:00 +14°C° 0.7 mm 4 m/S 737 mmHg 95%
    06:00 +14°C° 0.7 mm 4 m/S 737 mmHg 95%
    07:00 +14°C° 0.7 mm 4 m/S 737 mmHg 95%
    08:00 +15°C° 0.5 mm 4 m/S 738 mmHg 94%
    09:00 +15°C° 0.5 mm 4 m/S 738 mmHg 93%
    10:00 +15°C° 0.5 mm 4 m/S 739 mmHg 93%
    11:00 +14°C° 0.7 mm 6 m/S 739 mmHg 93%
    12:00 +14°C° 0.7 mm 7 m/S 739 mmHg 93%
    13:00 +12°C° 0.7 mm 8 m/S 739 mmHg 94%
    14:00 +11°C° 0.8 mm 8 m/S 739 mmHg 94%
    15:00 +11°C° 0.8 mm 8 m/S 739 mmHg 94%
    16:00 +10°C° 0.8 mm 8 m/S 739 mmHg 94%
    17:00 +9°C° 1 mm 8 m/S 740 mmHg 94%
    18:00 +9°C° 1 mm 8 m/S 740 mmHg 94%
    19:00 +9°C° 1 mm 8 m/S 740 mmHg 95%
    20:00 +9°C° 1.1 mm 8 m/S 741 mmHg 94%
    21:00 +9°C° 1.1 mm 7 m/S 741 mmHg 94%
    22:00 +9°C° 1.1 mm 7 m/S 741 mmHg 93%
    23:00 +8°C° 0.2 mm 6 m/S 741 mmHg 93%

    24 Mai, Freitag

    Zeit Temperatur Niederschläge Wind Luftdruck Luftfeuchtigkeit
    00:00 +8°C° 0.2 mm 6 m/S 741 mmHg 93%
    01:00 +8°C° 0.2 mm 6 m/S 742 mmHg 93%
    02:00 +8°C° 0 mm 5 m/S 742 mmHg 94%
    03:00 +7°C° 0 mm 4 m/S 742 mmHg 95%
    04:00 +7°C° 0 mm 4 m/S 742 mmHg 97%
    05:00 +8°C° 0 mm 4 m/S 742 mmHg 94%
    06:00 +9°C° 0 mm 5 m/S 742 mmHg 90%
    07:00 +10°C° 0 mm 5 m/S 742 mmHg 87%
    08:00 +12°C° 0 mm 5 m/S 742 mmHg 82%
    09:00 +13°C° 0 mm 5 m/S 742 mmHg 77%
    10:00 +15°C° 0 mm 5 m/S 742 mmHg 71%
    11:00 +15°C° 0 mm 5 m/S 742 mmHg 69%
    12:00 +16°C° 0 mm 5 m/S 741 mmHg 67%
    13:00 +18°C° 0 mm 4 m/S 741 mmHg 65%
    14:00 +18°C° 0 mm 4 m/S 741 mmHg 65%
    15:00 +18°C° 0 mm 4 m/S 741 mmHg 64%
    16:00 +18°C° 0 mm 3 m/S 740 mmHg 64%
    17:00 +17°C° 0 mm 3 m/S 740 mmHg 69%
    18:00 +16°C° 0 mm 2 m/S 740 mmHg 74%
    19:00 +14°C° 0 mm 1 m/S 740 mmHg 79%
    20:00 +13°C° 0 mm 1 m/S 740 mmHg 81%
    21:00 +12°C° 0 mm 1 m/S 740 mmHg 84%
    22:00 +11°C° 0 mm 1 m/S 740 mmHg 86%
    23:00 +11°C° 0 mm 1 m/S 740 mmHg 87%
    Mehr zeigen